Time,TemperatureF,DewpointF,PressureIn,WindDirection,WindDirectionDegrees,WindSpeedMPH,WindSpeedGustMPH,Humidity,HourlyPrecipIn,Conditions,Clouds,dailyrainin,SolarRadiationWatts/m^2,SoftwareType,DateUTC
2013-05-26 00:02:00,58.0,53.0,-100.00,ESE,112,1.0,2.0,82,0.00,,,0.00,0.000000,,2013-05-26 05:02:00,
2013-05-26 00:32:00,56.0,53.0,-100.00,South,176,0.0,2.0,89,0.00,,,0.00,0.000000,,2013-05-26 05:32:00,
2013-05-26 00:42:00,56.0,53.0,-100.00,South,176,0.0,2.0,89,0.00,,,0.00,0.000000,,2013-05-26 05:42:00,
2013-05-26 00:52:00,56.0,53.0,-100.00,South,176,0.0,2.0,89,0.00,,,0.00,0.000000,,2013-05-26 05:52:00,
2013-05-26 01:01:00,56.0,53.0,-100.00,South,176,0.0,2.0,89,0.00,,,0.00,0.000000,,2013-05-26 06:01:00,
2013-05-26 01:32:00,55.0,52.0,-100.00,NNE,32,1.0,2.0,91,0.00,,,0.00,0.000000,,2013-05-26 06:32:00,
2013-05-26 01:42:00,55.0,52.0,-100.00,NNE,32,1.0,2.0,91,0.00,,,0.00,0.000000,,2013-05-26 06:42:00,
2013-05-26 01:52:00,55.0,52.0,-100.00,NNE,32,1.0,2.0,91,0.00,,,0.00,0.000000,,2013-05-26 06:52:00,
2013-05-26 02:01:00,55.0,52.0,-100.00,NNE,32,1.0,2.0,91,0.00,,,0.00,0.000000,,2013-05-26 07:01:00,
2013-05-26 02:32:00,56.0,52.0,-100.00,NNE,23,2.0,3.0,88,0.00,,,0.00,0.000000,,2013-05-26 07:32:00,
2013-05-26 02:42:00,56.0,52.0,-100.00,NNE,23,2.0,3.0,88,0.00,,,0.00,0.000000,,2013-05-26 07:42:00,
2013-05-26 02:52:00,56.0,52.0,-100.00,NNE,23,2.0,3.0,88,0.00,,,0.00,0.000000,,2013-05-26 07:52:00,
2013-05-26 03:01:00,56.0,52.0,-100.00,NNE,23,2.0,3.0,88,0.00,,,0.00,0.000000,,2013-05-26 08:01:00,
2013-05-26 03:32:00,57.0,55.0,-100.00,NNE,19,2.0,6.0,93,0.00,,,0.00,0.000000,,2013-05-26 08:32:00,
2013-05-26 03:42:00,57.0,55.0,-100.00,NNE,19,2.0,6.0,93,0.00,,,0.00,0.000000,,2013-05-26 08:42:00,
2013-05-26 03:53:00,57.0,55.0,-100.00,NNE,19,2.0,6.0,93,0.00,,,0.00,0.000000,,2013-05-26 08:53:00,
2013-05-26 04:01:00,57.0,55.0,-100.00,NNE,19,2.0,6.0,93,0.00,,,0.00,0.000000,,2013-05-26 09:01:00,
2013-05-26 04:34:00,57.0,51.0,-100.00,NNE,29,2.0,5.0,80,0.00,,,0.00,0.000000,,2013-05-26 09:34:00,
2013-05-26 04:43:00,57.0,51.0,-100.00,NNE,29,2.0,5.0,80,0.00,,,0.00,0.000000,,2013-05-26 09:43:00,
2013-05-26 04:53:00,57.0,51.0,-100.00,NNE,29,2.0,5.0,80,0.00,,,0.00,0.000000,,2013-05-26 09:53:00,
2013-05-26 05:02:00,57.0,51.0,-100.00,NNE,29,2.0,5.0,80,0.00,,,0.00,0.000000,,2013-05-26 10:02:00,
2013-05-26 05:33:00,57.0,49.0,-100.00,NNE,13,3.0,10.0,75,0.00,,,0.00,0.000000,,2013-05-26 10:33:00,
2013-05-26 05:42:00,57.0,49.0,-100.00,NNE,13,3.0,10.0,75,0.00,,,0.00,0.000000,,2013-05-26 10:42:00,
2013-05-26 05:52:00,57.0,49.0,-100.00,NNE,13,3.0,10.0,75,0.00,,,0.00,0.000000,,2013-05-26 10:52:00,
2013-05-26 06:03:00,57.0,49.0,-100.00,NNE,13,3.0,10.0,75,0.00,,,0.00,0.000000,,2013-05-26 11:03:00,
2013-05-26 06:32:00,56.0,51.0,-100.00,South,180,2.0,5.0,83,0.00,,,0.00,3.000000,,2013-05-26 11:32:00,
2013-05-26 06:42:00,56.0,51.0,-100.00,South,180,2.0,5.0,83,0.00,,,0.00,3.000000,,2013-05-26 11:42:00,
2013-05-26 06:52:00,56.0,51.0,-100.00,South,180,2.0,5.0,83,0.00,,,0.00,3.000000,,2013-05-26 11:52:00,
2013-05-26 07:02:00,56.0,51.0,-100.00,South,180,2.0,5.0,83,0.00,,,0.00,3.000000,,2013-05-26 12:02:00,
2013-05-26 07:32:00,58.0,53.0,-100.00,WNW,302,1.0,5.0,82,0.00,,,0.00,46.000000,,2013-05-26 12:32:00,
2013-05-26 07:42:00,58.0,53.0,-100.00,WNW,302,1.0,5.0,82,0.00,,,0.00,46.000000,,2013-05-26 12:42:00,
2013-05-26 07:52:00,58.0,53.0,-100.00,WNW,302,1.0,5.0,82,0.00,,,0.00,46.000000,,2013-05-26 12:52:00,
2013-05-26 08:02:00,58.0,53.0,-100.00,WNW,302,1.0,5.0,82,0.00,,,0.00,46.000000,,2013-05-26 13:02:00,
2013-05-26 08:32:00,60.0,53.0,-100.00,South,185,2.0,5.0,77,0.00,,,0.00,126.000000,,2013-05-26 13:32:00,
2013-05-26 08:42:00,60.0,53.0,-100.00,South,185,2.0,5.0,77,0.00,,,0.00,126.000000,,2013-05-26 13:42:00,
2013-05-26 08:52:00,60.0,53.0,-100.00,South,185,2.0,5.0,77,0.00,,,0.00,126.000000,,2013-05-26 13:52:00,
2013-05-26 09:02:00,60.0,53.0,-100.00,South,185,2.0,5.0,77,0.00,,,0.00,126.000000,,2013-05-26 14:02:00,
2013-05-26 09:32:00,64.0,53.0,-100.00,SSE,158,2.0,5.0,67,0.00,,,0.00,241.000000,,2013-05-26 14:32:00,
2013-05-26 09:42:00,64.0,53.0,-100.00,SSE,158,2.0,5.0,67,0.00,,,0.00,241.000000,,2013-05-26 14:42:00,
2013-05-26 09:52:00,64.0,53.0,-100.00,SSE,158,2.0,5.0,67,0.00,,,0.00,241.000000,,2013-05-26 14:52:00,
2013-05-26 10:01:00,64.0,53.0,-100.00,SSE,158,2.0,5.0,67,0.00,,,0.00,241.000000,,2013-05-26 15:01:00,
2013-05-26 10:33:00,68.0,54.0,-100.00,NNE,33,2.0,5.0,60,0.00,,,0.00,353.000000,,2013-05-26 15:33:00,
2013-05-26 10:43:00,68.0,54.0,-100.00,NNE,33,2.0,5.0,60,0.00,,,0.00,353.000000,,2013-05-26 15:43:00,
2013-05-26 10:53:00,68.0,54.0,-100.00,NNE,33,2.0,5.0,60,0.00,,,0.00,353.000000,,2013-05-26 15:53:00,
2013-05-26 11:03:00,68.0,54.0,-100.00,NNE,33,2.0,5.0,60,0.00,,,0.00,353.000000,,2013-05-26 16:03:00,
2013-05-26 11:33:00,72.0,54.0,-100.00,South,185,3.0,6.0,53,0.00,,,0.00,649.000000,,2013-05-26 16:33:00,
2013-05-26 11:42:00,72.0,54.0,-100.00,South,185,3.0,6.0,53,0.00,,,0.00,649.000000,,2013-05-26 16:42:00,
2013-05-26 11:53:00,72.0,54.0,-100.00,South,185,3.0,6.0,53,0.00,,,0.00,649.000000,,2013-05-26 16:53:00,
2013-05-26 12:02:00,72.0,54.0,-100.00,South,185,3.0,6.0,53,0.00,,,0.00,649.000000,,2013-05-26 17:02:00,
2013-05-26 12:32:00,75.0,53.0,-100.00,South,187,3.0,9.0,47,0.00,,,0.00,676.000000,,2013-05-26 17:32:00,
2013-05-26 12:42:00,75.0,53.0,-100.00,South,187,3.0,9.0,47,0.00,,,0.00,676.000000,,2013-05-26 17:42:00,
2013-05-26 12:52:00,75.0,53.0,-100.00,South,187,3.0,9.0,47,0.00,,,0.00,676.000000,,2013-05-26 17:52:00,
2013-05-26 13:01:00,75.0,53.0,-100.00,South,187,3.0,9.0,47,0.00,,,0.00,676.000000,,2013-05-26 18:01:00,
2013-05-26 13:32:00,78.0,57.0,-100.00,SE,135,2.0,7.0,48,0.00,,,0.00,720.000000,,2013-05-26 18:32:00,
2013-05-26 13:42:00,78.0,57.0,-100.00,SE,135,2.0,7.0,48,0.00,,,0.00,720.000000,,2013-05-26 18:42:00,
2013-05-26 13:52:00,78.0,57.0,-100.00,SE,135,2.0,7.0,48,0.00,,,0.00,720.000000,,2013-05-26 18:52:00,
2013-05-26 14:01:00,78.0,57.0,-100.00,SE,135,2.0,7.0,48,0.00,,,0.00,720.000000,,2013-05-26 19:01:00,
2013-05-26 14:32:00,80.0,56.0,-100.00,ENE,68,3.0,6.0,44,0.00,,,0.00,849.000000,,2013-05-26 19:32:00,
2013-05-26 14:42:00,80.0,56.0,-100.00,ENE,68,3.0,6.0,44,0.00,,,0.00,849.000000,,2013-05-26 19:42:00,
2013-05-26 14:52:00,80.0,56.0,-100.00,ENE,68,3.0,6.0,44,0.00,,,0.00,849.000000,,2013-05-26 19:52:00,
2013-05-26 15:02:00,80.0,56.0,-100.00,ENE,68,3.0,6.0,44,0.00,,,0.00,849.000000,,2013-05-26 20:02:00,
2013-05-26 15:32:00,81.0,53.0,-100.00,ESE,110,2.0,7.0,38,0.00,,,0.00,770.000000,,2013-05-26 20:32:00,
2013-05-26 15:42:00,81.0,53.0,-100.00,ESE,110,2.0,7.0,38,0.00,,,0.00,770.000000,,2013-05-26 20:42:00,
2013-05-26 15:52:00,81.0,53.0,-100.00,ESE,110,2.0,7.0,38,0.00,,,0.00,770.000000,,2013-05-26 20:52:00,
2013-05-26 16:02:00,81.0,53.0,-100.00,ESE,110,2.0,7.0,38,0.00,,,0.00,770.000000,,2013-05-26 21:02:00,
2013-05-26 16:33:00,81.0,54.0,-100.00,NNW,347,3.0,7.0,39,0.00,,,0.00,650.000000,,2013-05-26 21:33:00,
2013-05-26 16:43:00,81.0,54.0,-100.00,NNW,347,3.0,7.0,39,0.00,,,0.00,650.000000,,2013-05-26 21:43:00,
2013-05-26 16:53:00,81.0,54.0,-100.00,NNW,347,3.0,7.0,39,0.00,,,0.00,650.000000,,2013-05-26 21:53:00,
2013-05-26 17:02:00,81.0,54.0,-100.00,NNW,347,3.0,7.0,39,0.00,,,0.00,650.000000,,2013-05-26 22:02:00,
2013-05-26 17:33:00,81.0,56.0,-100.00,East,93,2.0,6.0,42,0.00,,,0.00,463.000000,,2013-05-26 22:33:00,
2013-05-26 17:42:00,81.0,56.0,-100.00,East,93,2.0,6.0,42,0.00,,,0.00,463.000000,,2013-05-26 22:42:00,
2013-05-26 17:53:00,81.0,56.0,-100.00,East,93,2.0,6.0,42,0.00,,,0.00,463.000000,,2013-05-26 22:53:00,
2013-05-26 18:02:00,81.0,56.0,-100.00,East,93,2.0,6.0,42,0.00,,,0.00,463.000000,,2013-05-26 23:02:00,
2013-05-26 18:32:00,79.0,57.0,-100.00,South,176,1.0,5.0,47,0.00,,,0.00,254.000000,,2013-05-26 23:32:00,
2013-05-26 18:43:00,79.0,57.0,-100.00,South,176,1.0,5.0,47,0.00,,,0.00,254.000000,,2013-05-26 23:43:00,
2013-05-26 18:52:00,79.0,57.0,-100.00,South,176,1.0,5.0,47,0.00,,,0.00,254.000000,,2013-05-26 23:52:00,
2013-05-26 19:02:00,79.0,57.0,-100.00,South,176,1.0,5.0,47,0.00,,,0.00,254.000000,,2013-05-27 00:02:00,
2013-05-26 19:32:00,74.0,57.0,-100.00,South,169,1.0,3.0,56,0.00,,,0.00,105.000000,,2013-05-27 00:32:00,
2013-05-26 19:42:00,74.0,57.0,-100.00,South,169,1.0,3.0,56,0.00,,,0.00,105.000000,,2013-05-27 00:42:00,
2013-05-26 19:52:00,74.0,57.0,-100.00,South,169,1.0,3.0,56,0.00,,,0.00,105.000000,,2013-05-27 00:52:00,
2013-05-26 20:01:00,74.0,57.0,-100.00,South,169,1.0,3.0,56,0.00,,,0.00,105.000000,,2013-05-27 01:01:00,
2013-05-26 20:32:00,68.0,55.0,-100.00,SW,228,0.0,1.0,64,0.00,,,0.00,17.000000,,2013-05-27 01:32:00,
2013-05-26 20:42:00,68.0,55.0,-100.00,SW,228,0.0,1.0,64,0.00,,,0.00,17.000000,,2013-05-27 01:42:00,
2013-05-26 20:52:00,68.0,55.0,-100.00,SW,228,0.0,1.0,64,0.00,,,0.00,17.000000,,2013-05-27 01:52:00,
2013-05-26 21:01:00,68.0,55.0,-100.00,SW,228,0.0,1.0,64,0.00,,,0.00,17.000000,,2013-05-27 02:01:00,
2013-05-26 21:32:00,65.0,58.0,-100.00,East,96,0.0,2.0,78,0.00,,,0.00,0.000000,,2013-05-27 02:32:00,
2013-05-26 21:43:00,65.0,58.0,-100.00,East,96,0.0,2.0,78,0.00,,,0.00,0.000000,,2013-05-27 02:43:00,
2013-05-26 21:52:00,65.0,58.0,-100.00,East,96,0.0,2.0,78,0.00,,,0.00,0.000000,,2013-05-27 02:52:00,
2013-05-26 22:02:00,65.0,58.0,-100.00,East,96,0.0,2.0,78,0.00,,,0.00,0.000000,,2013-05-27 03:02:00,
2013-05-26 22:33:00,63.0,57.0,-100.00,SW,235,1.0,1.0,82,0.00,,,0.00,0.000000,,2013-05-27 03:33:00,
2013-05-26 22:43:00,63.0,57.0,-100.00,SW,235,1.0,1.0,82,0.00,,,0.00,0.000000,,2013-05-27 03:43:00,
2013-05-26 22:53:00,63.0,57.0,-100.00,SW,235,1.0,1.0,82,0.00,,,0.00,0.000000,,2013-05-27 03:53:00,
2013-05-26 23:02:00,63.0,57.0,-100.00,SW,235,1.0,1.0,82,0.00,,,0.00,0.000000,,2013-05-27 04:02:00,
2013-05-26 23:33:00,62.0,56.0,-100.00,South,182,1.0,2.0,82,0.00,,,0.00,0.000000,,2013-05-27 04:33:00,
2013-05-26 23:43:00,62.0,56.0,-100.00,South,182,1.0,2.0,82,0.00,,,0.00,0.000000,,2013-05-27 04:43:00,
2013-05-26 23:52:00,62.0,56.0,-100.00,South,182,1.0,2.0,82,0.00,,,0.00,0.000000,,2013-05-27 04:52:00,